DW3201 Weather Reports


Display with metric or nautical units.
time (UTC)temp
F
wind
direction
speed
MPH
gust
MPH
rain 1hr
in
rain 24hr
in
rain mn
in
humidity
%
barometer
mb
20260906114600 64 0 0.0 0.0 0.00 0.00 0.00 94 1018.7
20260906113057 64 0 0.0 0.0 0.00 0.00 0.00 94 1018.4
20260906111558 65 0 0.0 2.0 0.00 0.00 0.00 94 1018.4
20260906110103 65 50 0.0 4.0 0.00 0.00 0.00 94 1018.4
20260906104558 65 51 1.0 4.0 0.00 0.00 0.00 94 1018.3
20260906103104 65 50 0.0 1.0 0.00 0.00 0.00 94 1018.2
20260906101617 65 78 0.0 4.0 0.00 0.00 0.00 94 1018.3
20260906100101 65 62 2.0 4.0 0.00 0.00 0.00 94 1018.2
20260906094607 65 84 0.0 2.0 0.00 0.00 0.00 94 1018.3
20260906093109 65 50 1.0 4.0 0.00 0.00 0.00 95 1017.9
20260906091606 64 71 0.0 1.0 0.00 0.00 0.00 96 1017.7
20260906090104 63 0 0.0 0.0 0.00 0.00 0.00 95 1018.0
20260906084613 63 0 0.0 0.0 0.00 0.00 0.00 95 1018.0
20260906083104 63 0 0.0 0.0 0.00 0.00 0.00 95 1017.9
20260906081605 63 0 0.0 0.0 0.00 0.00 0.00 95 1017.7
20260906080105 63 0 0.0 0.0 0.00 0.00 0.00 95 1017.8
20260906074602 63 0 0.0 0.0 0.00 0.00 0.00 95 1017.8
20260906073103 63 0 0.0 0.0 0.00 0.00 0.00 95 1017.8
20260906071559 63 0 0.0 1.0 0.00 0.00 0.00 95 1017.7
20260906070058 63 0 0.0 0.0 0.00 0.00 0.00 94 1017.8
20260906064600 63 0 0.0 0.0 0.00 0.00 0.00 94 1018.0
20260906063103 63 0 0.0 1.0 0.00 0.00 0.00 94 1018.0
20260906061600 63 0 0.0 0.0 0.00 0.00 0.00 94 1018.0
20260906060136 63 0 0.0 1.0 0.00 0.00 0.00 94 1017.9
20260906054612 64 0 0.0 1.0 0.00 0.00 0.00 93 1017.9
20260906053058 64 0 0.0 0.0 0.00 0.00 0.00 92 1017.9
20260906051602 65 0 0.0 1.0 0.00 0.00 0.00 91 1017.8
20260906050105 66 0 0.0 2.0 0.00 0.00 0.00 91 1017.7
20260906044606 66 0 0.0 3.0 0.00 0.00 0.00 89 1017.8
20260906043102 66 68 0.0 1.0 0.00 0.00 0.00 89 1017.5
20260906041605 66 79 0.0 2.0 0.00 0.00 0.00 88 1017.3
20260906040105 66 75 1.0 3.0 0.00 0.00 0.00 88 1017.2
20260906034607 67 45 2.0 6.0 0.00 0.00 0.00 89 1017.5
20260906033101 67 41 3.0 6.0 0.00 0.00 0.00 90 1017.3
20260906031603 68 73 2.0 6.0 0.00 0.00 0.00 91 1017.2
20260906030101 68 47 2.0 7.0 0.00 0.00 0.00 92 1017.1
20260906024613 68 45 2.0 3.0 0.00 0.00 0.00 92 1017.0
20260906023058 68 49 0.0 2.0 0.00 0.00 0.00 91 1016.9
20260906021603 68 88 0.0 2.0 0.00 0.00 0.00 91 1016.7
20260906020109 69 50 2.0 7.0 0.00 0.00 0.00 91 1016.7
20260906014607 69 37 3.0 7.0 0.00 0.00 0.00 91 1016.7
20260906013108 69 41 4.0 6.0 0.00 0.00 0.00 90 1016.8
20260906011608 69 49 1.0 4.0 0.00 0.00 0.00 90 1016.8
20260906010143 69 74 2.0 6.0 0.00 0.00 0.00 90 1016.8
20260906004617 70 84 1.0 5.0 0.00 0.00 0.00 89 1016.8
20260906003102 70 41 3.0 5.0 0.00 0.00 0.00 88 1016.7
20260906001606 71 79 5.0 13.0 0.00 0.00 0.00 87 1016.8
20260906000100 72 36 7.0 12.0 0.00 0.00 0.00 86 1016.4
20260905234556 72 90 7.0 13.0 0.00 0.00 0.00 86 1016.4
20260905233103 73 50 7.0 14.0 0.00 0.00 0.00 85 1016.3
20260905231607 73 69 4.0 11.0 0.00 0.00 0.00 85 1016.6
20260905224603 75 92 3.0 8.0 0.00 0.00 0.00 80 1016.2
20260905223100 75 50 3.0 9.0 0.00 0.00 0.00 80 1016.1
20260905221600 75 75 5.0 10.0 0.00 0.00 0.00 80 1016.0
20260905220103 76 68 5.0 15.0 0.00 0.00 0.00 78 1015.9
20260905214609 76 6 5.0 13.0 0.00 0.00 0.00 77 1015.7
20260905213106 76 37 6.0 13.0 0.00 0.00 0.00 79 1015.5
20260905211612 77 92 6.0 17.0 0.00 0.00 0.00 80 1015.3
20260905210120 77 58 4.0 11.0 0.00 0.00 0.00 80 1015.2
20260905204601 77 89 6.0 14.0 0.00 0.00 0.00 79 1015.3
20260905203104 78 115 7.0 13.0 0.00 0.00 0.00 80 1015.3
20260905201604 79 53 7.0 12.0 0.00 0.00 0.00 74 1015.3
20260905200127 79 36 3.0 11.0 0.00 0.00 0.00 71 1015.3
20260905194601 80 0 2.0 5.0 0.00 0.00 0.00 72 1015.4
20260905193108 80 61 4.0 12.0 0.00 0.00 0.00 71 1015.4
20260905191602 79 105 3.0 11.0 0.00 0.00 0.00 72 1015.5
20260905190104 79 79 3.0 7.0 0.00 0.00 0.00 74 1015.5
20260905184609 79 25 1.0 5.0 0.00 0.00 0.00 75 1015.5
20260905183108 79 73 4.0 8.0 0.00 0.00 0.00 77 1015.6
20260905181602 79 44 3.0 7.0 0.00 0.00 0.00 77 1015.6
20260905174606 77 0 0.0 1.0 0.00 0.00 0.00 82 1015.9
20260905173104 76 58 2.0 3.0 0.00 0.00 0.00 83 1016.1
20260905171603 75 82 0.0 3.0 0.00 0.00 0.00 84 1016.1
20260905170101 75 46 1.0 4.0 0.00 0.00 0.00 85 1016.0
20260905164602 75 46 2.0 4.0 0.00 0.00 0.00 85 1016.1
20260905163058 75 94 2.0 5.0 0.00 0.00 0.00 85 1016.1
20260905161604 75 50 0.0 2.0 0.00 0.00 0.00 86 1016.1
20260905160100 74 0 0.0 6.0 0.00 0.00 0.00 87 1016.2
20260905154605 73 82 1.0 5.0 0.00 0.19 0.00 90 1016.1
20260905153105 73 90 2.0 8.0 0.00 0.19 0.00 90 1016.0
20260905151633 73 59 4.0 10.0 0.00 0.19 0.00 91 1016.0
20260905150104 73 105 2.0 6.0 0.00 0.19 0.00 91 1015.7
20260905144559 72 44 2.0 5.0 0.00 0.19 0.00 91 1015.5
20260905143105 72 41 2.0 6.0 0.00 0.19 0.00 91 1015.4
20260905141602 72 77 2.0 7.0 0.00 0.19 0.00 91 1015.1
20260905140058 72 72 7.0 12.0 0.00 0.19 0.00 92 1015.0
20260905134600 72 79 3.0 7.0 0.00 0.19 0.00 93 1014.9
20260905133056 71 60 1.0 6.0 0.00 0.19 0.00 94 1015.1
20260905131604 71 44 2.0 6.0 0.00 0.19 0.00 95 1015.2
20260905130059 70 86 1.0 3.0 0.00 0.19 0.00 95 1015.6
20260905124601 70 78 1.0 4.0 0.00 0.19 0.00 95 1015.0
20260905123114 70 65 2.0 6.0 0.00 0.19 0.00 96 1014.9
20260905121559 70 81 4.0 9.0 0.00 0.19 0.00 96 1014.4
20260905120106 70 32 3.0 6.0 0.00 0.19 0.00 96 1014.2